Powrót do katalogu

BREEZE-M DEB

AktywnyUNKNOWN
NORAD 38884·DEBRIS·🇷🇺 Russia

Wystrzelony Aug 6, 2012 z Baikonur Cosmodrome

Loading…

Następne Przeloty (najbliższe 24 godziny)

TLE

ŚwieżeSource: Space-Track

Epoka: Sep 14, 2026, 08:42 UTC

1 38884U 12044R   26257.36261775  .00013359  35432-5  28113-3 0  9992
2 38884  49.9910 296.7823 1851243 257.1878  81.6780 11.81153803553334

Śledź BREEZE-M DEB w czasie rzeczywistym z AllMySat

Download on the App Store